Location: Bremen
(53.0793°N, 8.8017°E)
Time: 23:57:01
(UTC+01:00)

Explorer 7 - Pass Details

Date: 07 December 2021
Orbit: 483 x 674 km, 50.3° (Epoch: 17 January)

Event Time Altitude Azimuth Distance (km) Brightness Sun altitude
Rises 08:04:55 0° 267° (W) 2,773 9.9 -3.1°
Reaches altitude 10° 08:07:16 10° 263° (W) 1,841 9.1 -2.8°
Maximum altitude 08:11:22 58° 185° (S) 627 7.4 -2.3°
Drops below altitude 10° 08:15:14 10° 106° (ESE) 1,736 10.8 -1.9°
Sets 08:17:23 0° 102° (ESE) 2,598 11.7 -1.6°
